Theta_e
344 343 343 343 341 340 341 343 343 342 342 344 347 345 340 339 341 343 343 344 346 346 346 344 348 347 344 342 340 345 345 345 348
343 343 342 342 343 342 343 341 343 344 344 344 348 348 344 339 341 343 343 341 342 345 347 346 346 348 348 345 340 342 341 341 347
341 343 343 342 342 343 343 344 343 341 342 346 346 347 346 342 336 340 344 342 343 345 346 347 346 345 347 347 343 345 346 347 347
342 342 342 342 342 343 343 343 341 341 344 341 338 346 344 342 342 335 341 341 338 345 347 345 346 346 347 346 345 347 350 350 345
346 345 345 345 344 344 342 343 343 343 345 346 345 345 344 341 342 342 339 339 337 339 345 347 347 345 346 339 343 346 351 350 344
347 347 347 346 345 343 343 342 343 345 346 344 339 337 341 343 345 342 344 339 336 338 343 347 347 346 345 345 343 346 347 346 347
346 347 347 347 348 349 348 348 347 342 344 342 336 338 340 343 345 343 345 345 339 339 342 342 345 343 344 343 339 342 344 347 344
344 344 346 347 347 345 345 345 348 344 343 344 342 339 341 340 344 343 344 346 349 344 342 341 342 343 342 342 343 343 342 344 344
343 346 346 346 346 343 344 343 342 347 347 347 344 344 343 342 340 343 345 346 347 348 345 348 347 346 346 347 344 344 345 345 344
342 345 347 345 345 344 347 346 342 347 349 347 347 347 345 343 342 340 338 346 347 346 346 347 350 349 348 349 348 346 344 345 347
343 343 345 340 344 345 345 340 343 342 341 343 343 343 345 344 342 341 344 346 345 346 346 347 346 344 348 349 350 349 348 345 346
341 339 338 338 340 344 345 342 343 344 343 343 344 345 344 342 346 346 345 343 343 345 340 340 348 349 349 350 347 349 349 350 346
337 338 338 337 341 339 338 336 341 344 344 343 344 345 345 344 344 342 343 345 346 346 341 346 347 348 349 350 350 350 349 348 346
337 338 339 339 331 334 338 335 336 336 335 339 342 343 344 344 343 342 339 340 342 344 345 345 345 345 346 347 347 348 348 347 348
339 340 338 333 333 334 324 324 327 329 331 335 339 341 342 342 341 341 336 336 341 343 343 343 344 346 346 347 348 347 346 347 346
339 339 337 332 334 335 331 329 324 325 326 330 332 339 342 341 341 340 336 334 334 335 335 335 336 336 340 341 342 344 345 345 346
339 338 334 334 336 335 334 334 333 330 329 328 324 337 339 338 338 339 333 336 334 335 336 338 339 339 338 342 340 341 342 342 343
337 333 333 336 335 333 335 336 336 335 332 333 330 328 337 336 336 337 331 333 331 333 333 334 335 335 335 336 336 337 338 339 339
334 333 332 332 332 333 335 337 336 333 333 332 330 330 333 335 335 336 337 331 331 332 331 331 333 333 333 333 333 333 335 336 337
334 334 334 334 334 334 335 336 333 333 333 332 331 329 330 335 335 337 336 336 332 331 331 330 329 329 329 329 329 329 331 331 331
Wind_Speed
30 35 34 35 32 31 35 28 30 26 28 31 32 29 29 32 28 27 27 24 19 21 20 18 17 17 11 12 12 12 14 15 12
27 30 32 33 30 30 27 32 31 30 31 30 30 32 32 33 32 30 28 26 22 25 23 22 19 19 17 14 13 11 12 12 10
18 24 28 31 36 28 29 32 34 33 29 32 24 29 34 32 31 33 29 27 25 25 23 18 19 20 18 20 17 14 13 12 10
20 25 28 30 31 27 24 30 33 35 30 27 38 29 29 32 30 29 29 27 25 25 26 22 19 20 18 21 20 18 17 15 13
19 20 21 21 26 33 30 25 25 28 27 25 27 22 27 28 31 28 30 31 29 29 25 23 21 21 17 18 20 20 19 18 18
27 23 19 18 20 29 30 26 19 31 34 29 22 36 31 30 32 31 28 26 29 31 29 29 27 25 22 23 22 22 22 20 17
31 24 18 20 16 13 13 13 17 24 31 28 16 12 21 28 35 34 30 28 28 33 33 31 29 27 27 23 25 26 24 25 22
27 25 19 19 15 12 8 7 10 19 25 22 31 25 24 30 34 37 33 30 28 27 30 31 32 29 26 26 26 26 26 25 23
31 27 23 19 16 11 9 8 7 11 12 14 24 30 29 22 26 28 36 32 28 26 28 29 27 25 28 27 28 27 25 24 23
34 31 28 20 17 13 11 7 6 11 10 9 10 12 11 19 22 26 26 34 30 31 31 29 35 32 30 29 28 26 26 25 25
35 31 30 22 18 13 8 7 11 8 5 4 3 8 8 11 17 25 20 28 33 32 33 33 37 36 33 30 28 26 25 25 26
36 36 29 22 15 11 8 6 8 9 9 6 5 2 1 7 9 12 18 29 34 32 32 31 35 36 35 34 31 31 29 27 27
38 35 30 22 15 11 10 5 7 7 7 6 6 5 4 3 3 11 17 17 21 26 36 30 29 30 31 34 36 35 32 31 30
38 33 29 23 17 12 7 7 6 6 7 10 8 7 6 7 7 8 9 13 19 17 18 24 24 27 30 32 33 31 31 32 35
37 33 27 21 19 12 9 6 5 6 5 6 7 9 11 11 11 11 8 7 8 13 15 15 17 21 22 24 25 27 30 31 32
34 30 24 19 17 16 12 7 4 5 3 5 8 6 4 5 7 7 7 8 8 11 15 17 17 17 16 17 19 20 22 16 19
32 26 22 17 18 17 15 9 2 3 5 7 6 5 6 5 7 9 6 4 2 2 4 7 11 15 17 18 21 21 21 19 19
27 22 21 21 21 17 15 14 7 1 4 5 9 3 6 6 7 3 2 1 3 5 6 6 5 3 4 9 14 18 19 17 18
21 20 23 22 19 18 16 13 5 0 4 6 9 7 10 11 9 9 6 4 2 4 6 8 8 9 12 14 14 10 1 7 8
20 24 25 22 23 20 16 8 4 6 3 7 8 8 5 13 13 9 7 8 6 5 7 8 8 9 12 14 17 18 18 19 19
Wind_Direction
204 211 208 211 208 212 215 215 210 214 226 231 230 233 221 221 224 232 236 234 236 231 226 229 228 234 227 236 221 223 216 208 219
194 205 211 218 216 214 225 227 225 232 234 232 236 237 231 221 224 229 235 238 245 231 233 231 235 236 230 230 220 213 220 212 209
194 210 213 224 222 217 218 224 220 231 228 228 231 243 240 229 224 228 231 236 237 232 226 235 239 236 233 236 223 207 215 224 223
190 205 200 215 217 211 222 227 235 229 249 231 234 235 235 237 229 230 234 235 235 230 239 244 239 232 248 230 226 212 215 233 243
164 181 185 199 208 203 210 209 221 233 221 217 216 219 228 232 238 232 231 237 237 234 236 239 238 235 230 235 224 222 228 236 245
167 165 163 176 191 199 208 225 238 214 211 218 239 249 235 226 238 231 228 228 227 227 233 241 245 240 247 235 235 232 229 236 241
140 140 143 164 165 177 194 227 222 213 213 215 242 200 227 238 235 228 225 225 228 227 231 238 245 245 247 242 234 236 241 242 245
153 147 157 162 168 170 180 206 202 211 221 237 234 215 225 257 230 229 227 228 228 230 238 243 247 251 248 242 240 240 237 239 243
159 165 177 178 176 165 168 182 204 194 200 219 221 236 239 234 234 231 232 234 225 226 227 235 238 244 245 247 244 239 237 239 246
169 175 176 179 179 173 167 174 211 206 208 209 219 235 243 239 230 227 238 230 230 231 234 239 241 242 246 247 248 250 246 243 245
173 173 172 172 173 167 159 146 142 138 149 174 210 247 242 220 218 239 245 222 230 232 241 239 247 242 240 247 250 251 252 249 245
168 162 164 168 172 167 165 167 166 159 159 162 159 155 239 229 234 233 232 235 246 259 248 250 246 247 242 245 250 254 252 253 254
161 162 164 166 168 162 148 148 180 203 217 235 227 219 210 224 224 235 239 245 243 241 237 245 241 246 246 249 251 252 251 252 250
169 165 158 161 167 158 143 142 163 186 221 233 235 253 266 270 274 273 259 246 240 241 247 244 245 254 250 250 249 247 250 249 249
161 157 158 162 152 142 133 130 170 202 210 214 240 251 256 265 271 280 279 264 254 247 254 256 245 249 254 256 259 260 257 258 254
162 161 159 158 156 157 160 145 120 153 202 257 244 235 239 272 304 291 275 278 266 253 251 251 252 253 254 258 258 262 268 267 262
162 162 166 165 173 176 172 179 168 44 41 16 338 218 227 255 296 310 306 290 271 252 253 249 250 255 260 261 268 262 262 262 255
163 165 176 185 185 185 184 184 179 353 18 32 15 284 216 236 258 281 340 154 115 99 93 81 68 31 318 285 270 262 261 258 257
181 183 183 184 192 191 189 177 166 224 343 358 352 343 219 221 234 271 271 247 177 124 107 88 84 79 67 66 65 61 187 230 237
198 193 194 200 204 202 189 189 212 225 292 316 324 329 234 212 218 238 256 244 218 178 146 128 122 106 100 95 89 81 82 91 99